This demonstration page uses our WeatherBlox Daily Observations layout. Learn more.

Left ArrowRight Arrow

47.50024, -111.30081

Hourly Observations for April 26, 2018

Temp ( °F °C ) Dew Point ( °F °C ) Humidity (%) Winds ( mph kmh ) Pressure ( in mb ) Visibility ( mi km ) Precip ( " mm )
12:53 am 00:53 Clear 35 1.7 29 -1.7 78 78 SSW 9 15 30.29 1026 10 16 0.00 0.00
1:53 am 01:53 Clear 39 3.9 30 -1.1 70 70 SSW 12 19 30.26 1025 10 16 0.00 0.00
2:53 am 02:53 Clear 39 3.9 29 -1.7 67 67 S 10 17 30.25 1025 10 16 0.00 0.00
3:53 am 03:53 Clear 34 1.1 27 -2.8 76 76 S 9 15 30.26 1025 10 16 0.00 0.00
4:53 am 04:53 Clear 35 1.7 28 -2.2 76 76 SSW 13 20 30.26 1025 10 16 0.00 0.00
5:53 am 05:53 Clear 39 3.9 28 -2.2 65 65 S 9 15 30.24 1024 10 16 0.00 0.00
6:53 am 06:53 Sunny 36 2.2 29 -1.7 76 76 SSW 9 15 30.26 1025 10 16 0.00 0.00
7:53 am 07:53 Sunny 45 7.2 30 -1.1 56 56 S 12 19 30.25 1024 10 16 0.00 0.00
8:53 am 08:53 Sunny 51 10.6 30 -1.1 44 44 SSW 13 20 30.25 1024 10 16 0.00 0.00
9:53 am 09:53 Sunny 56 13.3 31 -0.6 39 39 SSW 14 22 30.24 1024 10 16 0.00 0.00
10:53 am 10:53 Sunny 61 16.1 32 0 34 34 SW 13 20 30.22 1023 10 16 0.00 0.00
11:53 am 11:53 Sunny 64 17.8 30 -1.1 28 28 SW 14 22 30.19 1023 10 16 0.00 0.00
12:53 pm 12:53 Sunny 68 20 28 -2.2 22 22 SSW 9 15 30.16 1022 10 16 0.00 0.00
1:53 pm 13:53 Sunny 68 20 24 -4.4 19 19 Calm 30.14 1021 10 16 0.00 0.00
2:53 pm 14:53 Sunny 70 21.1 25 -3.9 18 18 WSW 9 15 30.13 1020 10 16 0.00 0.00
3:53 pm 15:53 Sunny 72 22.2 26 -3.3 18 18 NNW 7 11 30.11 1020 10 16 0.00 0.00
4:53 pm 16:53 Sunny 73 22.8 25 -3.9 17 17 undefined N/A 30.10 1019 10 16 0.00 0.00
5:53 pm 17:53 Sunny 71 21.7 25 -3.9 18 18 Calm 30.09 1019 10 16 0.00 0.00
6:53 pm 18:53 Sunny 72 22.2 25 -3.9 17 17 Calm 30.07 1018 10 16 0.00 0.00
7:53 pm 19:53 Sunny 67 19.4 28 -2.2 23 23 Calm 30.05 1018 10 16 0.00 0.00
8:53 pm 20:53 Clear 59 15 29 -1.7 32 32 ESE 5 7 30.06 1018 10 16 0.00 0.00
9:53 pm 21:53 Clear 56 13.3 28 -2.2 34 34 SE 6 9 30.06 1018 10 16 0.00 0.00
10:53 pm 22:53 Clear 54 12.2 28 -2.2 37 37 E 9 15 30.06 1018 10 16 0.00 0.00
11:53 pm 23:53 Clear 52 11.1 28 -2.2 40 40 ESE 6 9 30.04 1017 10 16 0.00 0.00

Powered by AerisWeather